Tracking 19125 objects as of 19-Apr-2018
HD Live streaming from Space Station
objects crossing your sky now

H-2A R/B

Track H-2A R/B now!
10-day predictions


NORAD ID: 37814
Int'l Code: 2011-050B
Perigee: 537.7 km
Apogee: 546.6 km
Inclination: 97.9 °
Period: 95.3 minutes
Semi major axis: 6913 km
RCS: Unknown
Launch date: September 23, 2011
Source: Japan (JPN)
Launch site: TANEGASHIMA SPACE CENTER (TNSTA)

Note: This is a ROCKET BODY
aabbcc
Your satellite tracking list
Your tracking list is empty




NASA's NSSDC Master Catalog

Two Line Element Set (TLE):
1 37814U 11050B   18096.11087909 0.00000600  00000-0  36583-4 0    07
2 37814  97.9002 264.6122 0006422 193.1960 166.8038 15.10389671    01
Source of the keplerian elements: McCants